Location: Caltech
(34.1382°N, 118.1253°W)
Time: 04:50:43
(UTC-07:00)

SEDSat Delta rocket - Visible Passes

Search period start: 30 September 2014 00:00
Search period end: 10 October 2014 00:00
Orbit: 534 x 1010 km, 31.4° (Epoch: 28 September)

Date Brightness Start Highest point End Pass type
(mag) Time Alt. Az. Time Alt. Az. Time Alt. Az.
02 Oct 5.4 05:51:15 10° SSW 05:55:17 23° SSE 05:59:46 10° E visible
03 Oct 5.4 05:13:12 12° S 05:16:16 19° SSE 05:20:04 10° ESE visible
04 Oct 5.4 04:36:42 15° SSE 04:37:17 16° SSE 04:40:17 10° ESE visible
04 Oct 4.4 06:18:08 10° SW 06:22:55 45° SSE 06:28:24 10° E visible
05 Oct 6.0 04:00:08 10° SE 04:00:08 10° SE 04:00:14 10° ESE visible
05 Oct 4.3 05:40:22 16° SW 05:43:50 39° SSE 05:48:56 10° E visible
06 Oct 4.3 05:03:45 30° S 05:04:48 34° SSE 05:09:29 10° E visible
07 Oct 4.9 04:27:04 25° SE 04:27:04 25° SE 04:30:03 10° E visible
07 Oct 3.7 06:07:19 12° WSW 06:11:43 61° S 06:17:07 10° E visible
08 Oct 6.1 03:50:22 11° ESE 03:50:22 11° ESE 03:50:38 10° E visible
08 Oct 3.5 05:30:36 31° SW 05:32:39 57° S 05:37:44 10° E visible
09 Oct 3.5 04:53:52 51° SSE 04:53:52 51° SSE 04:58:24 10° E visible
